| time (UTC) | temp F | wind direction | speed MPH | gust MPH | rain 1hr in | rain 24hr in | rain mn in | humidity % | barometer mb |
| 20260510123006 | 65 | 157 | 0.0 | 2.0 | 0.00 | 0.00 | 0.00 | 16 | 1003.0 |
| 20260510121600 | 66 | 217 | 1.0 | 3.0 | 0.00 | 0.00 | 0.00 | 17 | 1003.2 |
| 20260510120055 | 65 | 155 | 0.0 | 1.0 | 0.00 | 0.00 | 0.00 | 16 | 1003.0 |
| 20260510114550 | 65 | 158 | 1.0 | 2.0 | 0.00 | 0.00 | 0.00 | 16 | 1002.9 |
| 20260510113044 | 65 | 200 | 1.0 | 3.0 | 0.00 | 0.00 | 0.00 | 16 | 1003.0 |
| 20260510111537 | 66 | 312 | 2.0 | 4.0 | 0.00 | 0.00 | 0.00 | 16 | 1002.9 |
| 20260510110031 | 66 | 171 | 1.0 | 2.0 | 0.00 | 0.00 | 0.00 | 16 | 1003.3 |
| 20260510104528 | 67 | 139 | 0.0 | 5.0 | 0.00 | 0.00 | 0.00 | 15 | 1003.3 |
| 20260510103023 | 66 | 172 | 0.0 | 3.0 | 0.00 | 0.00 | 0.00 | 16 | 1003.1 |
| 20260510101513 | 66 | 196 | 0.0 | 2.0 | 0.00 | 0.00 | 0.00 | 16 | 1003.2 |
| 20260510100009 | 66 | 159 | 1.0 | 4.0 | 0.00 | 0.00 | 0.00 | 15 | 1003.3 |
| 20260510094501 | 66 | 166 | 0.0 | 2.0 | 0.00 | 0.00 | 0.00 | 15 | 1003.3 |
| 20260510093100 | 66 | 153 | 0.0 | 2.0 | 0.00 | 0.00 | 0.00 | 15 | 1003.5 |
| 20260510091551 | 66 | 198 | 0.0 | 3.0 | 0.00 | 0.00 | 0.00 | 16 | 1003.6 |
| 20260510090050 | 65 | 141 | 0.0 | 1.0 | 0.00 | 0.00 | 0.00 | 16 | 1003.5 |
| 20260510084556 | 65 | 141 | 0.0 | 1.0 | 0.00 | 0.00 | 0.00 | 16 | 1003.6 |
| 20260510083032 | 65 | 142 | 0.0 | 1.0 | 0.00 | 0.00 | 0.00 | 17 | 1003.8 |
| 20260510081533 | 66 | 144 | 0.0 | 1.0 | 0.00 | 0.00 | 0.00 | 15 | 1003.6 |
| 20260510080027 | 64 | 143 | 2.0 | 4.0 | 0.00 | 0.00 | 0.00 | 7 | 1003.8 |
| 20260510074515 | 64 | 136 | 1.0 | 3.0 | 0.00 | 0.00 | 0.00 | 6 | 1004.0 |
| 20260510073009 | 64 | 129 | 1.0 | 2.0 | 0.00 | 0.00 | 0.00 | 7 | 1004.0 |
| 20260510071503 | 64 | 132 | 2.0 | 3.0 | 0.00 | 0.00 | 0.00 | 7 | 1004.2 |
| 20260510070059 | 63 | 117 | 1.0 | 3.0 | 0.00 | 0.00 | 0.00 | 7 | 1004.1 |
| 20260510064554 | 63 | 115 | 1.0 | 3.0 | 0.00 | 0.00 | 0.00 | 8 | 1004.0 |
| 20260510063050 | 63 | 132 | 1.0 | 3.0 | 0.00 | 0.00 | 0.00 | 7 | 1004.2 |
| 20260510061541 | 63 | 122 | 1.0 | 3.0 | 0.00 | 0.00 | 0.00 | 8 | 1004.0 |
| 20260510060036 | 63 | 115 | 1.0 | 3.0 | 0.00 | 0.00 | 0.00 | 7 | 1004.2 |
| 20260510054535 | 63 | 110 | 0.0 | 2.0 | 0.00 | 0.00 | 0.00 | 9 | 1004.2 |
| 20260510053033 | 63 | 132 | 1.0 | 4.0 | 0.00 | 0.00 | 0.00 | 9 | 1004.0 |
| 20260510051530 | 64 | 114 | 1.0 | 3.0 | 0.00 | 0.00 | 0.00 | 8 | 1004.2 |
| 20260510050026 | 64 | 134 | 1.0 | 2.0 | 0.00 | 0.00 | 0.00 | 9 | 1004.2 |
| 20260510044529 | 64 | 125 | 1.0 | 2.0 | 0.00 | 0.00 | 0.00 | 8 | 1004.1 |
| 20260510043013 | 64 | 123 | 0.0 | 2.0 | 0.00 | 0.00 | 0.00 | 9 | 1004.2 |
| 20260510041512 | 64 | 121 | 0.0 | 2.0 | 0.00 | 0.00 | 0.00 | 9 | 1004.0 |
| 20260510040002 | 63 | 121 | 1.0 | 2.0 | 0.00 | 0.00 | 0.00 | 11 | 1004.0 |
| 20260510034600 | 63 | 122 | 1.0 | 3.0 | 0.00 | 0.00 | 0.00 | 12 | 1004.0 |
| 20260510033113 | 63 | 124 | 1.0 | 3.0 | 0.00 | 0.00 | 0.00 | 13 | 1003.6 |
| 20260510031549 | 63 | 124 | 1.0 | 3.0 | 0.00 | 0.00 | 0.00 | 14 | 1003.5 |
| 20260510030041 | 63 | 101 | 1.0 | 3.0 | 0.00 | 0.00 | 0.00 | 16 | 1003.3 |
| 20260510024531 | 64 | 115 | 0.0 | 2.0 | 0.00 | 0.00 | 0.00 | 17 | 1002.9 |
| 20260510023026 | 64 | 98 | 0.0 | 2.0 | 0.00 | 0.00 | 0.00 | 23 | 1002.9 |
| 20260510021521 | 63 | 98 | 0.0 | 2.0 | 0.00 | 0.00 | 0.00 | 38 | 1002.7 |
| 20260510020015 | 63 | 113 | 0.0 | 5.0 | 0.00 | 0.00 | 0.00 | 49 | 1002.6 |
| 20260510014509 | 63 | 103 | 1.0 | 6.0 | 0.00 | 0.00 | 0.00 | 49 | 1002.7 |
| 20260510013004 | 64 | 91 | 3.0 | 8.0 | 0.00 | 0.00 | 0.00 | 46 | 1002.7 |
| 20260510011602 | 65 | 99 | 5.0 | 9.0 | 0.00 | 0.00 | 0.00 | 42 | 1002.8 |
| 20260510010058 | 66 | 98 | 4.0 | 9.0 | 0.00 | 0.00 | 0.00 | 43 | 1002.9 |
| 20260510004547 | 67 | 88 | 2.0 | 11.0 | 0.00 | 0.00 | 0.00 | 42 | 1002.9 |
| 20260510003040 | 67 | 92 | 3.0 | 10.0 | 0.00 | 0.00 | 0.00 | 40 | 1002.8 |
| 20260510001533 | 67 | 84 | 5.0 | 12.0 | 0.00 | 0.00 | 0.00 | 38 | 1003.1 |
| 20260510000052 | 68 | 77 | 5.0 | 13.0 | 0.00 | 0.00 | 0.00 | 36 | 1003.2 |
| 20260509234527 | 68 | 76 | 4.0 | 11.0 | 0.00 | 0.00 | 0.00 | 34 | 1003.2 |
| 20260509233017 | 69 | 94 | 4.0 | 10.0 | 0.00 | 0.00 | 0.00 | 31 | 1003.4 |
| 20260509231513 | 68 | 100 | 4.0 | 9.0 | 0.00 | 0.00 | 0.00 | 30 | 1003.2 |
| 20260509230008 | 68 | 105 | 4.0 | 8.0 | 0.00 | 0.00 | 0.00 | 29 | 1003.2 |
| 20260509224505 | 68 | 103 | 5.0 | 12.0 | 0.00 | 0.00 | 0.00 | 29 | 1003.6 |
| 20260509223105 | 68 | 107 | 5.0 | 12.0 | 0.00 | 0.00 | 0.00 | 31 | 1003.6 |
| 20260509221553 | 68 | 79 | 4.0 | 12.0 | 0.00 | 0.00 | 0.00 | 27 | 1003.7 |
| 20260509220048 | 68 | 104 | 3.0 | 10.0 | 0.00 | 0.00 | 0.00 | 28 | 1003.8 |
| 20260509214542 | 68 | 61 | 5.0 | 10.0 | 0.00 | 0.00 | 0.00 | 31 | 1003.9 |
| 20260509213039 | 69 | 90 | 3.0 | 10.0 | 0.00 | 0.00 | 0.00 | 31 | 1004.2 |
| 20260509211532 | 68 | 98 | 6.0 | 10.0 | 0.00 | 0.00 | 0.00 | 32 | 1004.0 |
| 20260509210031 | 68 | 131 | 4.0 | 13.0 | 0.00 | 0.00 | 0.00 | 32 | 1004.1 |
| 20260509204523 | 69 | 94 | 3.0 | 8.0 | 0.00 | 0.00 | 0.00 | 32 | 1004.4 |
| 20260509203013 | 69 | 95 | 4.0 | 9.0 | 0.00 | 0.00 | 0.00 | 29 | 1004.2 |
| 20260509201505 | 69 | 70 | 3.0 | 9.0 | 0.00 | 0.00 | 0.00 | 30 | 1004.3 |
| 20260509200109 | 70 | 106 | 4.0 | 9.0 | 0.00 | 0.00 | 0.00 | 26 | 1004.4 |
| 20260509194554 | 70 | 67 | 3.0 | 12.0 | 0.00 | 0.00 | 0.00 | 32 | 1004.2 |
| 20260509193048 | 69 | 79 | 3.0 | 11.0 | 0.00 | 0.00 | 0.00 | 32 | 1004.5 |
| 20260509191543 | 69 | 60 | 3.0 | 8.0 | 0.00 | 0.00 | 0.00 | 32 | 1004.3 |
| 20260509190037 | 70 | 65 | 2.0 | 7.0 | 0.00 | 0.00 | 0.00 | 29 | 1004.6 |
| 20260509184542 | 71 | 81 | 2.0 | 5.0 | 0.00 | 0.00 | 0.00 | 30 | 1004.7 |
| 20260509183026 | 73 | 70 | 1.0 | 4.0 | 0.00 | 0.00 | 0.00 | 23 | 1004.7 |
| 20260509181518 | 71 | 75 | 0.0 | 4.0 | 0.00 | 0.00 | 0.00 | 28 | 1004.8 |
| 20260509180015 | 72 | 58 | 1.0 | 6.0 | 0.00 | 0.00 | 0.00 | 22 | 1004.9 |
| 20260509174508 | 72 | 46 | 3.0 | 10.0 | 0.00 | 0.00 | 0.00 | 16 | 1004.9 |
| 20260509173001 | 72 | 33 | 3.0 | 8.0 | 0.00 | 0.00 | 0.00 | 15 | 1005.1 |
| 20260509170049 | 72 | 326 | 0.0 | 4.0 | 0.00 | 0.00 | 0.00 | 18 | 1005.0 |
| 20260509164543 | 71 | 58 | 1.0 | 4.0 | 0.00 | 0.00 | 0.00 | 16 | 1004.9 |
| 20260509163039 | 71 | 49 | 1.0 | 5.0 | 0.00 | 0.00 | 0.00 | 14 | 1005.0 |
| 20260509161533 | 70 | 324 | 1.0 | 6.0 | 0.00 | 0.00 | 0.00 | 14 | 1004.9 |
| 20260509160032 | 71 | 290 | 1.0 | 4.0 | 0.00 | 0.00 | 0.00 | 18 | 1004.8 |
| 20260509154521 | 71 | 324 | 1.0 | 3.0 | 0.00 | 0.00 | 0.00 | 16 | 1005.0 |
| 20260509153029 | 71 | 26 | 0.0 | 3.0 | 0.00 | 0.00 | 0.00 | 15 | 1004.9 |
| 20260509151507 | 72 | 96 | 0.0 | 2.0 | 0.00 | 0.00 | 0.00 | 17 | 1005.2 |
| 20260509150001 | 71 | 98 | 0.0 | 0.0 | 0.00 | 0.00 | 0.00 | 15 | 1005.5 |
| 20260509144608 | 69 | 98 | 0.0 | 1.0 | 0.00 | 0.00 | 0.00 | 13 | 1005.2 |
| 20260509143115 | 67 | 123 | 0.0 | 0.0 | 0.00 | 0.00 | 0.00 | 14 | 1005.3 |
| 20260509141544 | 65 | 124 | 0.0 | 0.0 | 0.00 | 0.00 | 0.00 | 13 | 1005.2 |
| 20260509140038 | 66 | 124 | 0.0 | 1.0 | 0.00 | 0.00 | 0.00 | 14 | 1005.1 |
| 20260509134556 | 65 | 127 | 0.0 | 1.0 | 0.00 | 0.00 | 0.00 | 13 | 1005.1 |
| 20260509133031 | 65 | 127 | 0.0 | 2.0 | 0.00 | 0.00 | 0.00 | 12 | 1005.0 |
| 20260509131521 | 65 | 131 | 0.0 | 1.0 | 0.00 | 0.00 | 0.00 | 12 | 1005.0 |
| 20260509130016 | 65 | 143 | 1.0 | 3.0 | 0.00 | 0.00 | 0.00 | 10 | 1004.9 |
| 20260509124509 | 63 | 108 | 0.0 | 2.0 | 0.00 | 0.00 | 0.00 | 12 | 1005.0 |